Hourly Data Report for June 08, 2021

HALL BEACH A
NUNAVUT
Current Station Operator: NAVCAN

68°46'33.000" N
81°14'33.000" W
9.10 m
2402354
71293
YUX

Download Data

Hourly Data (June 2021)
Hourly Data Report for June 8, 2021
TIME
LST
Temp Definition
°C
Dew Point Definition
°C
Rel Hum Definition
%
Precip. Amount Definition
mm

Wind Dir Definition
10's deg

Wind Spd Definition
km/h
Visibility Definition
km
Stn Press Definition
kPa
Hmdx Definition


Wind Chill Definition


Weather Definition


00:00 0.7 -0.3 93 0.0 36 21 16.1 101.00     LegendNANA
01:00 -0.6 -1.3 95 0.0 35 18 16.1 101.00   -6 LegendNANA
02:00 -1.1 -1.7 96 0.0 35 18 16.1 101.01   -6 LegendNANA
03:00 -0.2 -1.1 94 0.0 35 18 16.1 101.01   -5 LegendNANA
04:00 -0.1 -1.0 94 0.0 36 21 16.1 101.01   -6 LegendNANA
05:00 1.0 -0.5 90 0.0 35 22 16.1 101.06     LegendNANA
06:00 1.8 0.0 88 0.0 35 24 16.1 101.08     LegendNANA
07:00 1.9 0.0 87 0.0 35 26 16.1 101.10     LegendNANA
08:00 2.1 0.0 86 0.0 36 26 16.1 101.11     LegendNANA
09:00 1.7 0.1 89 0.0 34 24 16.1 101.15     LegendNANA
10:00 1.6 0.0 89 0.0 33 26 16.1 101.15     LegendNANA
11:00 1.7 0.1 89 0.0 34 26 16.1 101.16     LegendNANA
12:00 1.9 0.0 87 0.0 34 24 16.1 101.17     LegendNANA
13:00 1.9 0.1 88 0.0 32 21 16.1 101.21     LegendNANA
14:00 1.7 0.1 89 0.0 33 22 16.1 101.24     LegendNANA
15:00 1.8 0.0 88 0.0 33 24 16.1 101.27     LegendNANA
16:00 1.7 0.1 89 0.0 33 22 16.1 101.31     LegendNANA
17:00 1.5 0.0 90 0.0 33 28 16.1 101.34     LegendNANA
18:00 1.4 -0.1 90 0.0 32 32 16.1 101.36     LegendNANA
19:00 1.1 -0.2 91 0.0 32 32 16.1 101.38     LegendNANA
20:00 0.7 -0.5 92 0.0 32 28 16.1 101.39     LegendNANA
21:00 0.1 -0.8 94 0.0 32 32 16.1 101.37     LegendNANA
22:00 -0.4 -1.3 94 0.0 31 32 16.1 101.35   -7 LegendNANA
23:00 -0.8 -1.5 95 0.0 31 32 16.1 101.33   -8 LegendNANA

Notes on Data Quality.

Legend

  • E = Estimated
  • M = Missing
  • NA = Not Available*
  • [empty] = Indicates an unobserved value
Date modified: